Regional Weather Roundup
Issued by NWS

Home | Current Version | Previous Version | Graphics & Text | Print | Product List | Glossary On
Versions: 1 2 3 4 5 6 7 8 9 10 11 12 13 14 15 16 17 18 19 20 21 22 23 24 25 26 27 28 29 30 31 32 33 34 35 36 37 38 39 40 41 42 43 44 45 46 47 48 49 50
000
ASUS45 KCYS 282110
RWRWY

WYOMING REGIONAL WEATHER ROUNDUP
NATIONAL WEATHER SERVICE CHEYENNE WY
300 PM MDT SAT MAR 28 2015

NOTE:  "FAIR" INDICATES FEW OR NO CLOUDS BELOW 12,000 FEET
WITH NO SIGNIFICANT WEATHER AND/OR OBSTRUCTIONS TO VISIBILITY.

WYZ001-282200-
YELLOWSTONE NATIONAL PARK

CITY           SKY/WX    TMP DP  RH WIND       PRES   REMARKS
LK YELLOWSTONE   N/A     46  27  47 W8G28     30.01F
W YELLOWSTONE  NOT AVBL

$$
WYZ002>013-054>058-071-098>099-282200-
NORTHERN WYOMING

CITY           SKY/WX    TMP DP  RH WIND       PRES   REMARKS
JACKSON        MOSUNNY   52  28  40 S23G32    30.06S
CODY           FAIR      66  23  19 SW22G40   29.84R
GREYBULL       FAIR      77  19  11 W40G51    29.71F
WORLAND        FAIR      78  24  13 SW31G45   29.73F
SHERIDAN       FAIR      75  25  15 W9G20     29.67F
BUFFALO        PTSUNNY   72  27  18 SW15G30   29.74F
GILLETTE       FAIR      75  25  15 SW22G35   29.69F
HULETT         FAIR      77  28  16 SW15G25   29.69F
NEWCASTLE      FAIR      77  21  12 SW12      29.74F

$$
WYZ014>020-022>026-101>103-282200-
CENTRAL WYOMING

CITY           SKY/WX    TMP DP  RH WIND       PRES   REMARKS
BIG PINEY      FAIR      62  19  19 W32G46    30.09R
PINEDALE       FAIR      57  23  26 W31G43    30.08R
DUBOIS         FAIR      55  19  24 MISG      30.00R
LANDER         FAIR      72  21  14 W47G64    29.81F
RIVERTON       NOT AVBL
CASPER         FAIR      75  20  12 W29G44    29.86F
DOUGLAS        FAIR      76  23  14 W36G49    29.81F

$$
WYZ021-027>030-104>119-282200-
SOUTHERN WYOMING

CITY           SKY/WX    TMP DP  RH WIND       PRES   REMARKS
EVANSTON       FAIR      61  21  21 W31G39    30.17F
KEMMERER       FAIR      61  25  25 W33G43    30.15R
FORT BRIDGER   FAIR      66  19  16 W32G48    30.15F
ROCK SPRINGS   FAIR      68  21  16 W36G45    30.07F
DIXON          FAIR      70  25  18 SW22G31   30.09F
RAWLINS        FAIR      70  18  13 W39G46    30.00F
SARATOGA       FAIR      68  23  18 W24G35    30.06F
LARAMIE        FAIR      67  20  16 SW24G30   30.04F
CHEYENNE       FAIR      73  20  13 W23G31    29.97F
TORRINGTON     FAIR      79  25  13 W17G26    29.81F
PINE BLUFFS    FAIR      77  19  11 W12G26    29.91F

$$



USA.gov is the U.S. government's official web portal to all federal, state and local government web resources and services.